Location: Arbon
(43.0005°N, 0.7472°E)
Time: 04:28:50
(UTC+00:00)

Vanguard 2 Rocket - Pass Details

Date: 25 June 2021
Orbit: 554 x 3325 km, 32.9° (Epoch: 26 July)

Event Time Altitude Azimuth Distance (km) Brightness Sun altitude
Rises 20:24:30 0° 265° (W) 7,257 12.2 -7.2°
Reaches altitude 10° 20:29:27 10° 262° (W) 6,284 11.8 -7.9°
Maximum altitude 20:48:51 58° 191° (S) 3,227 9.5 -10.4°
Enters shadow 21:02:29 10° 117° (ESE) 4,587 9.9 -12.1°
